Enid, OK

7:26 AM CDT on May 26, 2017 (GMT -0500)
Enid Woodring Municipal

Weather History for KWDG - March, 2013

Change the Weather History Date:

Sunday, March 31, 2013

  Actual Average Record
Temperature  
Mean Temperature 58 °F -  
Max Temperature 71 °F 63 °F 87 °F (2015)
Min Temperature 44 °F 44 °F 32 °F (2009)
Degree Days  
Heating Degree Days 8    
Growing Degree Days 8 (Base 50)    
Moisture  
Dew Point 45 °F    
Average Humidity 71    
Maximum Humidity 94    
Minimum Humidity 29    
Precipitation  
Precipitation 0.00 in - - ()
Sea Level Pressure  
Sea Level Pressure 29.99 in    
Wind  
Wind Speed 11 mph (North)    
Max Wind Speed 34 mph    
Max Gust Speed 41 mph    
Visibility 10 miles    
Events Thunderstorm    
Averages and records for this station are not official NWS values.
T = Trace of Precipitation, MM = Missing Value Source: NWS Daily Summary

Daily Weather History Graph

Daily Weather History Graph

Search for Another Location

Airport or City:

Trip Planner

Search our weather history database for the weather conditions in past years. The results will help you decide how hot, cold, wet, or windy it might be!

Date:

Astronomy

Mar. 31, 2013 Rise Set
Actual Time 7:18 AM CDT 7:52 PM CDT
Civil Twilight 6:52 AM CDT 8:18 PM CDT
Nautical Twilight 6:21 AM CDT 8:49 PM CDT
Astronomical Twilight 5:50 AM CDT 9:20 PM CDT
Moon No Moon Rise 10:14 AM CDT (3/31)
Length of Visible Light 13h 26m
Length of Day
12h 34m
Waning Gibbous, 77% of the Moon is Illuminated
Mar 31
Waning Gibbous
Apr 2
Last Quarter
Apr 10
New
Apr 18
First Quarter
Apr 25
Full

Hourly Weather History & Observations

Time (CDT) Temp. Windchill Dew Point Humidity Pressure Visibility Wind Dir Wind Speed Gust Speed Precip Events Conditions
12:15 AM 51.8 °F - 50.0 °F 94% 29.93 in 10.0 mi North 9.2 mph - N/A   Clear
12:35 AM 51.8 °F - 48.2 °F 88% 29.93 in 10.0 mi North 5.8 mph - N/A   Clear
12:55 AM 51.8 °F - 50.0 °F 94% 29.92 in 10.0 mi North 8.1 mph - N/A   Clear
1:15 AM 51.8 °F - 48.2 °F 88% 29.93 in 10.0 mi North 8.1 mph - N/A   Clear
1:35 AM 53.6 °F - 51.8 °F 94% 29.94 in 10.0 mi North 9.2 mph - N/A   Scattered Clouds
1:55 AM 55.4 °F - 53.6 °F 94% 29.94 in 10.0 mi North 10.4 mph - N/A   Scattered Clouds
2:15 AM 59.0 °F - 53.6 °F 82% 29.96 in 10.0 mi NNW 9.2 mph - N/A Thunderstorm Clear
2:35 AM 57.2 °F - 53.6 °F 88% 29.95 in 10.0 mi NNW 3.5 mph - N/A   Clear
2:55 AM 57.2 °F - 53.6 °F 88% 29.99 in 10.0 mi NNW 34.5 mph 41.4 mph N/A   Scattered Clouds
3:15 AM 53.6 °F - 48.2 °F 82% 30.01 in 10.0 mi North 28.8 mph 40.3 mph N/A   Scattered Clouds
3:35 AM 53.6 °F - 46.4 °F 77% 30.00 in 10.0 mi North 32.2 mph 41.4 mph N/A   Clear
3:55 AM 51.8 °F - 46.4 °F 82% 29.99 in 10.0 mi North 29.9 mph 40.3 mph N/A   Scattered Clouds
4:15 AM 51.8 °F - 46.4 °F 82% 29.99 in 10.0 mi North 20.7 mph 25.3 mph N/A   Mostly Cloudy
4:35 AM 51.8 °F - 46.4 °F 82% 30.01 in 10.0 mi NNE 15.0 mph - N/A Thunderstorm Scattered Clouds
4:55 AM 51.8 °F - 46.4 °F 82% 30.00 in 10.0 mi NNE 12.7 mph - N/A   Mostly Cloudy
5:15 AM 51.8 °F - 46.4 °F 82% 29.99 in 10.0 mi NE 9.2 mph 12.7 mph N/A   Scattered Clouds
5:35 AM 51.8 °F - 46.4 °F 82% 30.00 in 10.0 mi NNE 8.1 mph - N/A   Mostly Cloudy
5:55 AM 50.0 °F - 46.4 °F 87% 30.01 in 10.0 mi North 9.2 mph - N/A   Mostly Cloudy
6:20 AM 50.0 °F - 48.2 °F 94% 30.00 in 10.0 mi North 9.2 mph - N/A   Scattered Clouds
8:50 AM 53.6 °F - 50.0 °F 88% 30.06 in 10.0 mi NNW 13.8 mph - N/A   Scattered Clouds
9:50 AM 53.6 °F - 48.2 °F 82% 30.05 in 10.0 mi North 17.3 mph - N/A   Scattered Clouds
10:50 AM 59.0 °F - 48.2 °F 67% 30.05 in 10.0 mi North 13.8 mph 19.6 mph N/A   Scattered Clouds
11:50 AM 64.4 °F - 46.4 °F 52% 30.04 in 10.0 mi North 18.4 mph - N/A   Scattered Clouds
12:50 PM 66.2 °F - 44.6 °F 46% 30.03 in 10.0 mi North 17.3 mph - N/A   Partly Cloudy
1:50 PM 68.0 °F - 42.8 °F 40% 30.01 in 10.0 mi NNE 13.8 mph 21.9 mph N/A   Partly Cloudy
2:50 PM 69.8 °F - 41.0 °F 35% 30.00 in 10.0 mi NNW 9.2 mph 19.6 mph N/A   Clear
3:50 PM 69.8 °F - 37.4 °F 31% 29.99 in 10.0 mi North 11.5 mph - N/A   Partly Cloudy
4:50 PM 71.6 °F - 37.4 °F 29% 29.98 in 10.0 mi NW 9.2 mph - N/A   Clear
5:50 PM 69.8 °F - 37.4 °F 31% 29.97 in 10.0 mi NNW 8.1 mph - N/A   Clear
6:50 PM 68.0 °F - 37.4 °F 33% 29.86 in 10.0 mi NNE 6.9 mph - N/A   Clear
8:50 PM 55.4 °F - 39.2 °F 54% 29.97 in 10.0 mi ENE 6.9 mph - N/A   Clear
9:15 PM 51.8 °F - 39.2 °F 62% 29.97 in 10.0 mi Calm Calm - N/A   Clear
9:35 PM 51.8 °F - 39.2 °F 62% 29.98 in 10.0 mi ENE 3.5 mph - N/A   Clear
9:55 PM 50.0 °F - 37.4 °F 62% 29.98 in 10.0 mi Calm Calm - N/A   Clear
10:15 PM 48.2 °F - 39.2 °F 71% 29.99 in 10.0 mi North 3.5 mph - N/A   Clear
10:35 PM 48.2 °F - 39.2 °F 71% 30.00 in 10.0 mi Calm Calm - N/A   Clear
10:55 PM 46.4 °F 45.2 °F 37.4 °F 71% 30.00 in 10.0 mi NE 3.5 mph - N/A   Clear
11:15 PM 44.6 °F 41.4 °F 37.4 °F 76% 30.00 in 10.0 mi ENE 5.8 mph - N/A   Clear
11:55 PM 44.6 °F - 37.4 °F 76% 30.00 in 10.0 mi Calm Calm - N/A   Clear